User: anonymous   Login
Location: Waldport
(44.4270°N, 124.0680°W)
Time: 07:52:38
(UTC-08:00)
Language:

Meteor 1-11 - Orbit

View from above orbital plane
View from above orbital plane
View from above satellite
View from above satellite

Ground track
Ground track

The orbit data is extracted from the following two-line orbital elements,

1  5917U 72022A   18344.96275129  .00000013  00000-0  45865-7 0  9995
2  5917  81.2206  78.3402 0030802 153.0861 207.1915 14.08649475398175
Epoch (UTC): 10 December 2018 23:06:21
Eccentricity: 0.0030802
inclination: 81.2206°
perigee height: 841 km
apogee height: 886 km
right ascension of ascending node: 78.3402°
argument of perigee: 153.0861°
revolutions per day: 14.08649475
mean anomaly at epoch: 207.1915°
orbit number at epoch: 39817

The dashed part of the orbit path shows where the satellite is in the earth's shadow,  

DLR